FW7322 Weather Reports


Display with metric or nautical units.
time (UTC)temp
F
wind
direction
speed
MPH
gust
MPH
rain 1hr
in
rain 24hr
in
rain mn
in
humidity
%
barometer
mb
20260510091058 50 88 0.0 0.0 0.00 0.35 0.00 95 1034.6
20260510090557 50 89 0.0 0.0 0.00 0.35 0.00 95 1034.6
20260510090057 50 89 0.0 0.0 0.00 0.35 0.00 95 1034.7
20260510085556 50 89 0.0 0.0 0.00 0.35 0.00 95 1034.7
20260510085056 50 89 0.0 0.0 0.00 0.35 0.00 95 1034.7
20260510084603 49 88 0.0 0.0 0.00 0.35 0.00 95 1034.8
20260510084057 49 88 0.0 0.0 0.00 0.35 0.00 95 1034.8
20260510083556 49 89 0.0 0.0 0.00 0.35 0.00 95 1034.7
20260510083115 49 88 0.0 0.0 0.00 0.35 0.00 95 1034.7
20260510082556 49 88 0.0 0.0 0.00 0.35 0.00 95 1034.6
20260510082056 49 88 0.0 0.0 0.00 0.35 0.00 95 1034.4
20260510081613 49 88 0.0 0.0 0.00 0.35 0.00 95 1034.4
20260510081055 49 88 0.0 0.0 0.00 0.35 0.00 95 1034.4
20260510080555 49 89 0.0 0.0 0.00 0.35 0.00 94 1034.4
20260510080056 49 88 0.0 0.0 0.00 0.35 0.00 94 1034.3
20260510075555 49 89 0.0 0.0 0.00 0.35 0.00 94 1034.2
20260510075056 49 89 0.0 0.0 0.00 0.35 0.00 94 1034.0
20260510074555 49 89 0.0 0.0 0.00 0.35 0.00 94 1034.0
20260510074058 50 89 0.0 0.0 0.00 0.35 0.00 94 1033.8
20260510073554 50 89 0.0 0.0 0.00 0.35 0.00 95 1033.9
20260510073055 50 89 0.0 0.0 0.00 0.35 0.00 95 1033.7
20260510072556 50 77 0.0 0.0 0.00 0.35 0.00 95 1033.8
20260510072054 50 77 0.0 0.0 0.00 0.35 0.00 95 1033.8
20260510071553 49 77 0.0 0.0 0.00 0.35 0.00 94 1033.6
20260510071051 49 77 0.0 0.0 0.00 0.35 0.00 94 1033.7
20260510070549 49 77 0.0 0.0 0.00 0.35 0.00 94 1033.8
20260510070048 49 77 0.0 0.0 0.00 0.35 0.00 95 1033.7
20260510065548 49 75 0.0 0.0 0.00 0.35 0.00 95 1034.0
20260510065046 49 75 0.0 0.0 0.00 0.35 0.00 95 1034.2
20260510064548 49 75 0.0 0.0 0.00 0.35 0.00 95 1034.5
20260510064045 49 75 0.0 0.0 0.00 0.35 0.00 95 1034.5
20260510063545 49 75 0.0 0.0 0.00 0.35 0.00 94 1034.5
20260510063046 49 75 0.0 0.0 0.00 0.35 0.00 94 1034.6
20260510062547 49 75 0.0 0.0 0.00 0.35 0.00 94 1034.7
20260510062045 49 75 0.0 0.0 0.00 0.35 0.00 94 1034.7
20260510061555 49 75 0.0 0.0 0.00 0.35 0.00 94 1034.7
20260510061044 49 75 0.0 0.0 0.00 0.35 0.00 94 1034.8
20260510060544 49 75 0.0 0.0 0.00 0.35 0.00 94 1034.7
20260510060046 49 75 0.0 0.0 0.00 0.35 0.00 94 1034.9
20260510055543 49 75 0.0 0.0 0.00 0.35 0.00 94 1035.3
20260510055043 49 75 0.0 0.0 0.00 0.35 0.00 94 1035.2
20260510054543 49 75 0.0 0.0 0.00 0.35 0.00 94 1035.4
20260510054043 49 75 0.0 0.0 0.00 0.35 0.00 94 1035.3
20260510053542 49 75 0.0 0.0 0.00 0.35 0.00 94 1035.5
20260510053049 49 75 0.0 0.0 0.00 0.35 0.00 94 1035.4
20260510052541 49 84 0.0 0.0 0.00 0.35 0.00 94 1035.4
20260510052041 49 84 0.0 0.0 0.00 0.35 0.00 95 1035.5
20260510051543 49 84 0.0 2.0 0.00 0.35 0.00 94 1035.6
20260510051042 48 83 0.0 11.0 0.00 0.35 0.00 94 1035.6
20260510050542 48 74 0.0 11.0 0.00 0.35 0.00 94 1035.4
20260510050039 48 68 2.0 4.0 0.00 0.35 0.00 94 1035.6
20260510045538 48 79 0.0 0.0 0.00 0.35 0.00 94 1034.8
20260510045038 48 79 0.0 0.0 0.00 0.35 0.00 94 1034.7
20260510044537 48 79 0.0 0.0 0.00 0.35 0.00 94 1034.7
20260510044037 48 79 0.0 0.0 0.00 0.35 0.00 94 1034.7
20260510043536 48 79 0.0 0.0 0.00 0.35 0.00 93 1034.8
20260510043036 48 79 0.0 0.0 0.00 0.35 0.00 94 1034.8
20260510042534 48 79 0.0 0.0 0.00 0.35 0.00 94 1034.8
20260510042038 49 79 0.0 0.0 0.00 0.35 0.00 94 1034.8
20260510041537 49 79 0.0 0.0 0.00 0.35 0.00 94 1034.8
20260510041034 49 79 0.0 0.0 0.00 0.35 0.00 94 1034.6
20260510040531 49 79 0.0 1.0 0.00 0.35 0.00 94 1034.5
20260510040030 49 79 0.0 2.0 0.00 0.35 0.00 94 1034.1
20260510035530 49 79 0.0 2.0 0.00 0.35 0.35 94 1034.0
20260510035029 49 79 0.0 2.0 0.00 0.35 0.35 94 1033.9
20260510034530 48 92 0.0 0.0 0.00 0.35 0.35 93 1033.8
20260510034029 48 92 0.0 0.0 0.00 0.35 0.35 93 1033.6
20260510033528 48 92 0.0 0.0 0.00 0.35 0.35 93 1033.5
20260510033029 49 92 0.0 0.0 0.00 0.35 0.35 93 1033.4
20260510032529 48 92 0.0 0.0 0.00 0.35 0.35 93 1033.5
20260510032033 49 92 0.0 0.0 0.00 0.35 0.35 93 1033.5
20260510031529 49 92 0.0 1.0 0.00 0.35 0.35 93 1033.7
20260510031028 49 92 0.0 1.0 0.00 0.35 0.35 93 1033.6
20260510030527 49 92 0.0 0.0 0.00 0.35 0.35 93 1033.6
20260510030034 49 92 0.0 0.0 0.00 0.35 0.35 93 1033.6
20260510025527 49 92 0.0 0.0 0.00 0.36 0.35 93 1033.7
20260510025028 50 92 0.0 0.0 0.00 0.36 0.35 93 1033.7
20260510024533 50 92 0.0 0.0 0.00 0.36 0.35 93 1033.8
20260510024027 50 92 0.0 0.0 0.00 0.36 0.35 93 1033.7
20260510023527 50 92 0.0 0.0 0.00 0.36 0.35 93 1033.6
20260510023027 50 92 0.0 0.0 0.00 0.36 0.35 93 1033.8
20260510022527 50 92 0.0 0.0 0.00 0.36 0.35 93 1033.7
20260510022027 50 92 0.0 0.0 0.00 0.36 0.35 92 1033.7
20260510021533 50 92 0.0 0.0 0.00 0.36 0.35 93 1033.7
20260510021025 50 92 0.0 0.0 0.00 0.36 0.35 92 1033.7
20260510020526 50 92 0.0 0.0 0.00 0.36 0.35 92 1033.6
20260510020025 50 92 0.0 0.0 0.00 0.36 0.35 92 1033.6
20260510015525 50 92 0.0 1.0 0.00 0.36 0.35 92 1033.6
20260510015025 51 92 0.0 1.0 0.00 0.36 0.35 92 1033.6
20260510014527 51 92 0.0 1.0 0.00 0.36 0.35 91 1033.7
20260510014025 51 92 0.0 1.0 0.00 0.36 0.35 91 1033.7
20260510013528 51 92 0.0 1.0 0.00 0.36 0.35 90 1033.6
20260510013024 51 92 0.0 1.0 0.00 0.36 0.35 90 1033.5
20260510012524 52 92 0.0 1.0 0.00 0.36 0.35 90 1033.6
20260510012024 52 93 0.0 1.0 0.00 0.36 0.35 90 1033.6
20260510011625 52 92 0.0 1.0 0.00 0.36 0.35 89 1033.5
20260510011024 53 92 0.0 0.0 0.00 0.36 0.35 89 1033.4
20260510010523 53 92 0.0 0.0 0.00 0.36 0.35 89 1033.4
20260510010023 53 92 0.0 0.0 0.00 0.36 0.35 89 1033.3
20260510005523 53 93 0.0 0.0 0.00 0.36 0.35 88 1033.1
20260510005022 53 92 0.0 0.0 0.00 0.36 0.35 88 1033.1
20260510004522 53 92 0.0 1.0 0.00 0.36 0.35 88 1032.9
20260510004022 54 92 0.0 1.0 0.00 0.36 0.35 87 1033.0
20260510003522 54 92 0.0 1.0 0.00 0.36 0.35 87 1033.0
20260510003029 54 92 0.0 1.0 0.00 0.36 0.35 87 1032.9
20260510002522 55 92 0.0 1.0 0.00 0.36 0.35 87 1032.9
20260510002021 55 92 0.0 1.0 0.00 0.36 0.35 86 1032.8
20260510001522 55 92 0.0 3.0 0.00 0.36 0.35 86 1032.7
20260510001021 56 92 0.0 3.0 0.00 0.36 0.35 85 1032.8
20260510000521 56 101 0.0 0.0 0.00 0.36 0.35 85 1032.6
20260510000022 56 101 0.0 1.0 0.00 0.36 0.35 85 1032.6
20260509235521 57 101 0.0 1.0 0.00 0.37 0.35 84 1032.6
20260509235021 58 100 0.0 0.0 0.00 0.37 0.35 84 1032.4
20260509234532 58 100 0.0 0.0 0.00 0.37 0.35 83 1032.4
20260509234020 59 103 0.0 0.0 0.00 0.37 0.35 82 1032.3
20260509233519 60 103 0.0 1.0 0.00 0.37 0.35 82 1032.5
20260509233020 60 103 0.0 2.0 0.00 0.37 0.35 81 1032.3
20260509232521 60 102 0.0 4.0 0.00 0.37 0.35 81 1032.3
20260509232019 60 255 0.0 4.0 0.00 0.37 0.35 82 1032.3
20260509231519 60 89 0.0 0.0 0.00 0.37 0.35 83 1032.3
20260509231018 60 89 0.0 0.0 0.00 0.37 0.35 82 1032.3
20260509230518 60 89 0.0 0.0 0.00 0.37 0.35 82 1032.4
20260509230017 60 89 0.0 1.0 0.00 0.37 0.35 83 1032.4
20260509225517 59 89 0.0 4.0 0.00 0.39 0.35 83 1032.4
20260509225016 59 82 0.0 4.0 0.00 0.39 0.35 84 1032.5
20260509224516 59 80 0.0 4.0 0.00 0.39 0.35 84 1032.5
20260509224016 59 93 0.0 4.0 0.00 0.39 0.35 84 1032.5
20260509223519 59 106 0.0 5.0 0.00 0.39 0.35 84 1032.3
20260509223017 59 84 1.0 5.0 0.00 0.39 0.35 83 1032.5
20260509222515 60 81 0.0 5.0 0.00 0.39 0.35 83 1032.5
20260509222015 60 68 1.0 4.0 0.00 0.39 0.35 83 1032.5
20260509221515 59 96 0.0 4.0 0.00 0.39 0.35 84 1032.4
20260509221014 59 99 0.0 4.0 0.00 0.39 0.35 85 1032.6
20260509220513 59 77 2.0 4.0 0.00 0.39 0.35 83 1032.6
20260509220014 60 124 0.0 2.0 0.00 0.39 0.35 86 1032.7
20260509215513 59 115 0.0 4.0 0.00 0.39 0.35 86 1032.8
20260509215010 58 91 0.0 4.0 0.00 0.39 0.35 85 1032.8
20260509214510 58 94 0.0 3.0 0.00 0.39 0.35 86 1032.8
20260509214014 58 105 0.0 4.0 0.00 0.39 0.35 86 1032.7
20260509213510 58 82 0.0 4.0 0.00 0.39 0.35 86 1032.8
20260509213009 58 79 1.0 3.0 0.00 0.39 0.35 86 1032.7
20260509212507 58 85 0.0 3.0 0.00 0.39 0.35 88 1032.8
20260509212006 57 86 1.0 3.0 0.00 0.39 0.35 89 1032.8
20260509211504 56 115 0.0 2.0 0.00 0.39 0.35 89 1033.0
20260509211003 56 82 0.0 2.0 0.00 0.39 0.35 89 1033.0
20260509210503 56 142 0.0 3.0 0.00 0.39 0.35 89 1033.0
20260509210002 56 83 0.0 3.0 0.01 0.39 0.35 89 1033.2
20260509205501 56 82 1.0 3.0 0.01 0.39 0.35 89 1033.2
20260509205100 56 91 0.0 4.0 0.01 0.39 0.35 90 1033.3
20260509204604 56 86 1.0 4.0 0.01 0.39 0.35 90 1033.3
20260509204101 56 96 0.0 4.0 0.01 0.39 0.35 90 1033.4
20260509203600 56 97 0.0 3.0 0.01 0.39 0.35 90 1033.3
20260509203100 56 72 0.0 3.0 0.01 0.39 0.35 91 1033.3
20260509202558 56 93 0.0 3.0 0.01 0.39 0.35 91 1033.3
20260509202058 55 101 0.0 3.0 0.01 0.39 0.35 91 1033.4
20260509201557 55 91 0.0 2.0 0.01 0.39 0.35 91 1033.5
20260509201056 55 79 0.0 1.0 0.01 0.39 0.35 91 1033.7
20260509200557 55 97 0.0 3.0 0.02 0.39 0.35 91 1033.6
20260509200108 55 94 1.0 4.0 0.01 0.38 0.34 91 1033.6
20260509195556 55 86 0.0 4.0 0.02 0.41 0.34 91 1033.7
20260509195055 55 80 1.0 3.0 0.02 0.41 0.34 91 1033.6
20260509194556 55 74 1.0 4.0 0.02 0.41 0.34 91 1033.7
20260509194056 55 103 0.0 4.0 0.02 0.41 0.34 92 1033.8
20260509193555 55 91 0.0 4.0 0.02 0.41 0.34 93 1033.8
20260509193055 54 73 1.0 4.0 0.03 0.41 0.34 93 1033.6
20260509192555 54 96 0.0 0.0 0.04 0.41 0.34 93 1033.7
20260509192052 54 258 0.0 1.0 0.05 0.41 0.34 93 1033.7
20260509191552 53 259 0.0 3.0 0.06 0.41 0.34 92 1033.6
20260509191053 53 270 0.0 3.0 0.08 0.41 0.34 92 1033.7
20260509190551 53 99 0.0 2.0 0.08 0.40 0.33 92 1033.8
20260509190057 53 85 0.0 4.0 0.09 0.40 0.33 92 1033.9
20260509185550 53 329 0.0 4.0 0.09 0.39 0.32 92 1034.0
20260509184631 53 90 0.0 3.0 0.10 0.39 0.32 92 1034.1
20260509184052 53 92 0.0 3.0 0.11 0.39 0.32 92 1034.2
20260509183548 53 94 0.0 4.0 0.11 0.38 0.31 92 1034.1
20260509183050 53 95 0.0 4.0 0.11 0.38 0.31 92 1034.2
20260509182547 53 99 0.0 7.0 0.11 0.37 0.30 92 1034.3
20260509182047 53 60 1.0 7.0 0.11 0.36 0.28 92 1034.4
20260509181549 53 95 0.0 5.0 0.10 0.35 0.28 92 1034.3
20260509181046 53 88 1.0 5.0 0.08 0.33 0.26 92 1034.4
20260509180547 53 84 0.0 3.0 0.08 0.32 0.25 92 1034.4
20260509180046 53 243 1.0 5.0 0.07 0.31 0.24 92 1034.3
20260509175546 53 114 0.0 6.0 0.07 0.30 0.23 92 1034.2
20260509175046 53 76 2.0 6.0 0.06 0.28 0.22 91 1034.3
20260509174548 53 101 1.0 6.0 0.07 0.28 0.22 92 1034.2
20260509174046 53 86 0.0 6.0 0.06 0.28 0.21 92 1034.2
20260509173545 53 262 0.0 6.0 0.05 0.27 0.20 92 1034.2
20260509173047 53 86 0.0 5.0 0.05 0.26 0.19 91 1034.3
20260509172545 53 86 0.0 5.0 0.06 0.26 0.19 92 1034.2
20260509172046 53 77 1.0 5.0 0.06 0.25 0.18 92 1034.4
20260509171545 53 73 0.0 4.0 0.06 0.25 0.18 92 1034.3
20260509171047 53 103 0.0 4.0 0.07 0.25 0.18 92 1034.3
20260509170548 53 219 0.0 5.0 0.07 0.24 0.17 92 1034.2
20260509170043 53 115 1.0 6.0 0.08 0.24 0.17 91 1034.2
20260509165543 53 217 1.0 6.0 0.07 0.23 0.16 91 1034.2
20260509165043 53 87 0.0 6.0 0.08 0.23 0.16 91 1034.2
20260509164543 53 103 0.0 3.0 0.07 0.22 0.15 92 1034.3
20260509164045 53 264 1.0 4.0 0.07 0.22 0.15 91 1034.3
20260509163542 53 114 0.0 4.0 0.08 0.22 0.15 91 1034.3
20260509163101 53 99 0.0 4.0 0.07 0.21 0.14 91 1034.3
20260509162546 53 104 0.0 5.0 0.06 0.20 0.13 91 1034.5
20260509162043 53 108 0.0 5.0 0.05 0.19 0.12 91 1034.4
20260509161542 53 81 0.0 7.0 0.05 0.19 0.12 91 1034.5
20260509161045 53 98 3.0 7.0 0.05 0.18 0.11 91 1034.6
20260509160541 53 94 1.0 5.0 0.04 0.17 0.10 91 1034.5
20260509160041 53 73 1.0 5.0 0.03 0.16 0.09 91 1034.6
20260509155543 53 95 0.0 5.0 0.04 0.16 0.09 91 1034.6
20260509155040 54 82 0.0 4.0 0.03 0.15 0.08 91 1034.6
20260509154545 54 81 1.0 4.0 0.03 0.15 0.08 91 1034.7
20260509154042 54 235 0.0 2.0 0.04 0.15 0.08 92 1034.6
20260509153540 54 96 0.0 1.0 0.03 0.14 0.07 92 1034.7
20260509153040 54 96 0.0 3.0 0.03 0.14 0.07 92 1034.6
20260509152539 53 96 0.0 3.0 0.03 0.14 0.07 92 1034.6
20260509152039 54 259 0.0 2.0 0.03 0.14 0.07 93 1034.5
20260509151538 53 259 0.0 2.0 0.03 0.14 0.07 92 1034.6
20260509151041 53 98 0.0 0.0 0.02 0.13 0.06 93 1034.7
20260509150536 53 94 0.0 0.0 0.02 0.13 0.06 93 1034.7
20260509150036 53 94 0.0 0.0 0.02 0.13 0.06 93 1034.6
20260509145536 53 94 0.0 0.0 0.01 0.12 0.05 93 1034.7
20260509145037 53 94 0.0 0.0 0.02 0.12 0.05 94 1034.8
20260509144538 53 94 0.0 0.0 0.02 0.12 0.05 93 1034.7
20260509144037 52 94 0.0 0.0 0.01 0.11 0.04 93 1034.9
20260509143534 52 94 0.0 0.0 0.01 0.11 0.04 94 1034.9
20260509143044 52 94 0.0 0.0 0.01 0.11 0.04 93 1034.9
20260509142533 52 95 0.0 0.0 0.01 0.11 0.04 93 1034.7
20260509142036 52 95 0.0 0.0 0.02 0.11 0.04 93 1034.6
20260509141540 52 95 0.0 0.0 0.02 0.11 0.04 93 1034.7
20260509141032 52 95 0.0 0.0 0.02 0.11 0.04 94 1034.6
20260509140531 52 95 0.0 0.0 0.02 0.11 0.04 93 1034.6
20260509140031 52 95 0.0 0.0 0.02 0.11 0.04 94 1034.5
20260509135531 52 95 0.0 0.0 0.02 0.12 0.04 94 1034.7
20260509135033 51 95 0.0 0.0 0.02 0.11 0.03 94 1034.8
20260509134528 51 95 0.0 0.0 0.02 0.11 0.03 94 1034.8
20260509134028 51 95 0.0 0.0 0.02 0.11 0.03 94 1034.9
20260509133529 51 95 0.0 0.0 0.02 0.11 0.03 94 1034.8
20260509133026 51 95 0.0 0.0 0.02 0.11 0.03 94 1034.9
20260509132526 51 95 0.0 0.0 0.02 0.11 0.03 94 1034.9
20260509132029 51 95 0.0 0.0 0.01 0.10 0.02 94 1035.0
20260509131525 51 95 0.0 0.0 0.01 0.10 0.02 94 1034.9
20260509131027 51 95 0.0 0.0 0.01 0.10 0.02 94 1035.0
20260509130524 51 95 0.0 0.0 0.01 0.10 0.02 94 1034.9
20260509130024 51 95 0.0 0.0 0.01 0.10 0.02 94 1034.9
20260509125523 51 96 0.0 0.0 0.01 0.10 0.02 94 1035.1
20260509125023 51 96 0.0 0.0 0.00 0.09 0.01 94 1034.9
20260509124528 51 96 0.0 0.0 0.00 0.09 0.01 95 1034.7
20260509124022 51 96 0.0 0.0 0.00 0.09 0.01 95 1034.8
20260509123522 50 96 0.0 0.0 0.00 0.09 0.01 95 1034.6
20260509123027 50 96 0.0 0.0 0.00 0.09 0.01 95 1034.5
20260509122520 50 97 0.0 0.0 0.00 0.09 0.01 95 1034.4
20260509122019 50 97 0.0 0.0 0.00 0.09 0.01 95 1034.6
20260509121520 50 97 0.0 1.0 0.00 0.09 0.01 95 1034.5
20260509121018 50 97 0.0 1.0 0.00 0.09 0.01 95 1034.7
20260509120519 50 97 0.0 1.0 0.00 0.09 0.01 95 1034.5
20260509120018 50 96 0.0 0.0 0.00 0.09 0.01 95 1034.4
20260509115517 50 96 0.0 0.0 0.00 0.09 0.01 95 1034.5
20260509115022 50 139 0.0 0.0 0.00 0.09 0.01 95 1034.4
20260509114517 49 142 0.0 0.0 0.00 0.09 0.01 95 1034.4
20260509114015 49 142 0.0 0.0 0.00 0.09 0.01 95 1034.4
20260509113515 49 142 0.0 0.0 0.00 0.09 0.01 95 1034.4
20260509113015 49 253 0.0 0.0 0.01 0.09 0.01 95 1034.4
20260509112514 49 254 0.0 1.0 0.01 0.09 0.01 95 1034.4
20260509112013 49 255 0.0 1.0 0.01 0.09 0.01 95 1034.6
20260509111517 49 96 0.0 0.0 0.01 0.09 0.01 95 1034.7
20260509111014 49 96 0.0 0.0 0.01 0.09 0.01 95 1034.7
20260509110511 49 96 0.0 0.0 0.01 0.09 0.01 95 1034.7
20260509110014 49 96 0.0 0.0 0.01 0.09 0.01 95 1034.6
20260509105512 48 96 0.0 0.0 0.01 0.09 0.01 95 1034.7
20260509105011 48 96 0.0 0.0 0.01 0.09 0.01 95 1034.6
20260509104524 48 96 0.0 0.0 0.01 0.09 0.01 95 1034.6
20260509104011 48 96 0.0 0.0 0.01 0.09 0.01 95 1034.8
20260509103510 48 96 0.0 0.0 0.01 0.09 0.01 95 1034.6
20260509103010 48 96 0.0 0.0 0.00 0.08 0.00 95 1034.8
20260509102513 48 96 0.0 0.0 0.00 0.08 0.00 95 1034.7
20260509102010 48 96 0.0 0.0 0.00 0.08 0.00 95 1034.7
20260509101510 48 96 0.0 0.0 0.00 0.08 0.00 95 1034.7
20260509101008 48 96 0.0 0.0 0.00 0.08 0.00 95 1034.8
20260509100508 48 96 0.0 0.0 0.00 0.08 0.00 95 1034.8
20260509100014 48 96 0.0 0.0 0.00 0.08 0.00 95 1034.9
20260509095509 48 101 0.0 0.0 0.00 0.08 0.00 95 1035.0
20260509095009 48 101 0.0 0.0 0.00 0.08 0.00 95 1035.1
20260509094509 48 101 0.0 0.0 0.00 0.08 0.00 95 1034.9
20260509094008 48 143 0.0 0.0 0.00 0.08 0.00 95 1034.9
20260509093510 48 143 0.0 0.0 0.00 0.08 0.00 95 1034.9
20260509093008 48 143 0.0 0.0 0.00 0.08 0.00 94 1035.0
20260509092508 48 151 0.0 0.0 0.00 0.08 0.00 94 1034.8
20260509092007 48 150 0.0 0.0 0.00 0.08 0.00 94 1034.9
20260509091507 48 150 0.0 0.0 0.00 0.08 0.00 94 1034.9